• în Republica Moldova
  • Lista ţărilor
  • Pe 7 zile
  • Temperatura apei
  • Hartă satelitară
  • Meteo pe hartă
  • Widget-uri
  • user-avatar
    Intrare

    Meteo pe oră la Sydney

    Astăzi, 17 Ianuarie, Marţi

    Timp Temperatura Precipitaţii Vânt Presiune Umiditate
    00:00 +20°C° 0 mm 4 m/s 760 mmHg 95%
    01:00 +19°C° 0 mm 3 m/s 760 mmHg 97%
    02:00 +19°C° 0 mm 3 m/s 759 mmHg 97%
    03:00 +19°C° 0 mm 3 m/s 759 mmHg 97%
    04:00 +19°C° 0 mm 3 m/s 759 mmHg 97%
    05:00 +21°C° 0 mm 3 m/s 759 mmHg 89%
    06:00 +24°C° 0 mm 3 m/s 759 mmHg 81%
    07:00 +26°C° 0 mm 3 m/s 759 mmHg 73%
    08:00 +30°C° 0 mm 3 m/s 759 mmHg 59%
    09:00 +35°C° 0 mm 3 m/s 759 mmHg 46%
    10:00 +39°C° 0 mm 3 m/s 758 mmHg 32%
    11:00 +41°C° 0 mm 4 m/s 758 mmHg 28%
    12:00 +43°C° 0 mm 4 m/s 757 mmHg 23%
    13:00 +45°C° 0 mm 4 m/s 756 mmHg 19%
    14:00 +43°C° 0 mm 5 m/s 756 mmHg 23%
    15:00 +41°C° 0 mm 5 m/s 755 mmHg 27%
    16:00 +40°C° 0 mm 6 m/s 755 mmHg 31%
    17:00 +38°C° 0 mm 6 m/s 755 mmHg 37%
    18:00 +35°C° 0 mm 6 m/s 755 mmHg 42%
    19:00 +33°C° 0 mm 6 m/s 755 mmHg 47%
    20:00 +32°C° 0 mm 5 m/s 755 mmHg 48%
    21:00 +32°C° 0 mm 5 m/s 755 mmHg 48%
    22:00 +30°C° 0 mm 5 m/s 755 mmHg 49%
    23:00 +30°C° 0 mm 5 m/s 755 mmHg 48%

    Mâine, 18 Ianuarie, Miercuri

    Timp Temperatura Precipitaţii Vânt Presiune Umiditate
    00:00 +30°C° 0 mm 5 m/s 754 mmHg 47%
    01:00 +30°C° 0 mm 5 m/s 754 mmHg 46%
    02:00 +30°C° 0 mm 5 m/s 754 mmHg 46%
    03:00 +32°C° 0 mm 5 m/s 753 mmHg 46%
    04:00 +33°C° 0 mm 5 m/s 753 mmHg 46%
    05:00 +34°C° 0 mm 5 m/s 754 mmHg 44%
    06:00 +35°C° 0 mm 5 m/s 754 mmHg 43%
    07:00 +36°C° 0 mm 6 m/s 754 mmHg 41%
    08:00 +39°C° 0 mm 5 m/s 754 mmHg 36%
    09:00 +41°C° 0 mm 5 m/s 754 mmHg 32%
    10:00 +43°C° 0 mm 4 m/s 754 mmHg 27%
    11:00 +42°C° 0 mm 5 m/s 754 mmHg 28%
    12:00 +42°C° 0 mm 5 m/s 753 mmHg 28%
    13:00 +42°C° 0 mm 6 m/s 753 mmHg 29%
    14:00 +39°C° 0 mm 6 m/s 753 mmHg 37%
    15:00 +35°C° 0 mm 7 m/s 754 mmHg 45%
    16:00 +32°C° 0 mm 8 m/s 754 mmHg 53%
    17:00 +29°C° 0 mm 7 m/s 755 mmHg 60%
    18:00 +27°C° 0 mm 7 m/s 756 mmHg 67%
    19:00 +24°C° 0 mm 7 m/s 757 mmHg 73%
    20:00 +23°C° 0 mm 6 m/s 758 mmHg 73%
    21:00 +23°C° 0 mm 6 m/s 759 mmHg 72%
    22:00 +22°C° 0 mm 5 m/s 760 mmHg 71%
    23:00 +22°C° 0 mm 5 m/s 760 mmHg 70%

    Poimâine, 19 Ianuarie, Joi

    Timp Temperatura Precipitaţii Vânt Presiune Umiditate
    00:00 +22°C° 0 mm 4 m/s 760 mmHg 68%
    01:00 +22°C° 0 mm 4 m/s 759 mmHg 66%
    02:00 +21°C° 0 mm 4 m/s 759 mmHg 66%
    03:00 +21°C° 0 mm 4 m/s 759 mmHg 66%
    04:00 +21°C° 0 mm 3 m/s 759 mmHg 66%
    05:00 +21°C° 0 mm 3 m/s 759 mmHg 66%
    06:00 +21°C° 0 mm 3 m/s 759 mmHg 66%
    07:00 +22°C° 0 mm 3 m/s 760 mmHg 65%
    08:00 +22°C° 0 mm 3 m/s 760 mmHg 64%
    09:00 +22°C° 0 mm 3 m/s 760 mmHg 63%
    10:00 +24°C° 0 mm 2 m/s 760 mmHg 62%
    11:00 +25°C° 0 mm 3 m/s 759 mmHg 59%
    12:00 +26°C° 0 mm 3 m/s 759 mmHg 56%
    13:00 +27°C° 0 mm 3 m/s 758 mmHg 53%
    14:00 +26°C° 0 mm 3 m/s 758 mmHg 57%
    15:00 +26°C° 0 mm 4 m/s 758 mmHg 60%
    16:00 +25°C° 0 mm 4 m/s 757 mmHg 64%
    17:00 +25°C° 0 mm 5 m/s 757 mmHg 67%
    18:00 +23°C° 0 mm 5 m/s 757 mmHg 70%
    19:00 +23°C° 0 mm 5 m/s 757 mmHg 73%
    20:00 +22°C° 0 mm 5 m/s 758 mmHg 75%
    21:00 +22°C° 0 mm 5 m/s 758 mmHg 77%
    22:00 +21°C° 0 mm 5 m/s 758 mmHg 80%
    23:00 +21°C° 0 mm 5 m/s 757 mmHg 80%

    20 Ianuarie, Vineri

    Timp Temperatura Precipitaţii Vânt Presiune Umiditate
    00:00 +21°C° 0 mm 5 m/s 757 mmHg 81%
    01:00 +21°C° 0 mm 5 m/s 756 mmHg 81%
    02:00 +21°C° 0 mm 5 m/s 755 mmHg 82%
    03:00 +21°C° 0 mm 5 m/s 755 mmHg 83%
    04:00 +21°C° 0 mm 5 m/s 754 mmHg 84%
    05:00 +22°C° 0 mm 6 m/s 754 mmHg 82%
    06:00 +23°C° 0 mm 6 m/s 754 mmHg 81%
    07:00 +23°C° 0 mm 6 m/s 754 mmHg 79%
    08:00 +24°C° 0,6 mm 6 m/s 753 mmHg 79%
    09:00 +26°C° 0,6 mm 6 m/s 753 mmHg 79%
    10:00 +26°C° 0,6 mm 6 m/s 752 mmHg 79%
    11:00 +29°C° 0,9 mm 6 m/s 751 mmHg 70%
    12:00 +33°C° 0,9 mm 6 m/s 750 mmHg 60%
    13:00 +35°C° 0,9 mm 6 m/s 749 mmHg 51%
    14:00 +35°C° 0,9 mm 6 m/s 749 mmHg 52%
    15:00 +35°C° 0,9 mm 6 m/s 748 mmHg 52%
    16:00 +35°C° 0,9 mm 6 m/s 748 mmHg 53%
    17:00 +34°C° 0,7 mm 5 m/s 748 mmHg 58%
    18:00 +32°C° 0,7 mm 4 m/s 748 mmHg 64%
    19:00 +30°C° 0,7 mm 3 m/s 748 mmHg 69%
    20:00 +29°C° 0,3 mm 4 m/s 749 mmHg 74%
    21:00 +28°C° 0,3 mm 5 m/s 750 mmHg 78%
    22:00 +27°C° 0,3 mm 5 m/s 750 mmHg 83%
    23:00 +24°C° 0 mm 6 m/s 751 mmHg 83%

    21 Ianuarie, Sâmbătă

    Timp Temperatura Precipitaţii Vânt Presiune Umiditate
    00:00 +23°C° 0 mm 7 m/s 752 mmHg 82%
    01:00 +22°C° 0 mm 7 m/s 752 mmHg 82%
    02:00 +22°C° 0 mm 7 m/s 753 mmHg 80%
    03:00 +22°C° 0 mm 7 m/s 753 mmHg 77%
    04:00 +21°C° 0 mm 7 m/s 754 mmHg 75%
    05:00 +22°C° 0 mm 6 m/s 755 mmHg 72%
    06:00 +22°C° 0 mm 6 m/s 756 mmHg 69%
    07:00 +22°C° 0 mm 6 m/s 756 mmHg 66%
    08:00 +23°C° 0 mm 6 m/s 757 mmHg 60%
    09:00 +24°C° 0 mm 6 m/s 757 mmHg 55%
    10:00 +27°C° 0 mm 5 m/s 757 mmHg 50%
    11:00 +28°C° 0 mm 6 m/s 757 mmHg 48%
    12:00 +28°C° 0 mm 6 m/s 757 mmHg 46%
    13:00 +29°C° 0 mm 6 m/s 757 mmHg 44%
    14:00 +28°C° 0 mm 6 m/s 757 mmHg 46%
    15:00 +28°C° 0 mm 6 m/s 757 mmHg 48%
    16:00 +27°C° 0 mm 6 m/s 757 mmHg 50%
    17:00 +26°C° 0 mm 5 m/s 758 mmHg 58%
    18:00 +23°C° 0 mm 4 m/s 759 mmHg 65%
    19:00 +22°C° 0 mm 3 m/s 759 mmHg 72%
    20:00 +21°C° 0 mm 3 m/s 760 mmHg 78%
    21:00 +20°C° 0 mm 2 m/s 761 mmHg 83%
    22:00 +19°C° 0 mm 2 m/s 761 mmHg 89%
    23:00 +20°C° 0 mm 2 m/s 761 mmHg 87%

    22 Ianuarie, Duminică

    Timp Temperatura Precipitaţii Vânt Presiune Umiditate
    00:00 +20°C° 0 mm 2 m/s 760 mmHg 84%
    01:00 +21°C° 0 mm 1 m/s 760 mmHg 82%
    02:00 +21°C° 0 mm 1 m/s 760 mmHg 84%
    03:00 +20°C° 0 mm 1 m/s 760 mmHg 85%
    04:00 +20°C° 0 mm 1 m/s 760 mmHg 87%
    05:00 +21°C° 0 mm 1 m/s 761 mmHg 82%
    06:00 +22°C° 0 mm 1 m/s 761 mmHg 78%
    07:00 +23°C° 0 mm 1 m/s 761 mmHg 73%
    08:00 +25°C° 0 mm 1 m/s 761 mmHg 65%
    09:00 +27°C° 0 mm 1 m/s 761 mmHg 57%
    10:00 +28°C° 0 mm 2 m/s 761 mmHg 49%
    11:00 +29°C° 0 mm 3 m/s 761 mmHg 46%
    12:00 +30°C° 0 mm 3 m/s 760 mmHg 43%
    13:00 +32°C° 0 mm 4 m/s 760 mmHg 40%
    14:00 +32°C° 0 mm 4 m/s 760 mmHg 42%
    15:00 +30°C° 0 mm 5 m/s 759 mmHg 43%
    16:00 +29°C° 0 mm 5 m/s 759 mmHg 45%
    17:00 +28°C° 0 mm 5 m/s 760 mmHg 52%
    18:00 +26°C° 0 mm 4 m/s 760 mmHg 59%
    19:00 +23°C° 0 mm 4 m/s 760 mmHg 67%
    20:00 +21°C° 0 mm 4 m/s 761 mmHg 75%
    21:00 +20°C° 0 mm 4 m/s 761 mmHg 83%
    22:00 +19°C° 0 mm 4 m/s 762 mmHg 91%
    23:00 +18°C° 0 mm 3 m/s 761 mmHg 93%
    Arată mai mult